| time (UTC) | temp C | wind direction | speed KPH | gust KPH | rain 1hr cm | rain 24hr cm | rain mn cm | humidity % | barometer mb |
| 20260502195744 | 13 | 59 | 8.0 | 14.5 | 0.00 | 0.00 | 0.00 | 52 | 1017.9 |
| 20260502195242 | 13 | 69 | 6.4 | 9.7 | 0.00 | 0.00 | 0.00 | 55 | 1017.9 |
| 20260502194741 | 13 | 55 | 3.2 | 6.4 | 0.00 | 0.00 | 0.00 | 54 | 1017.8 |
| 20260502194247 | 13 | 55 | 3.2 | 6.4 | 0.00 | 0.00 | 0.00 | 53 | 1017.8 |
| 20260502193741 | 14 | 55 | 3.2 | 6.4 | 0.00 | 0.00 | 0.00 | 53 | 1017.7 |
| 20260502193238 | 14 | 55 | 4.8 | 9.7 | 0.00 | 0.00 | 0.00 | 50 | 1017.8 |
| 20260502192738 | 14 | 55 | 3.2 | 9.7 | 0.00 | 0.00 | 0.00 | 51 | 1017.7 |
| 20260502192239 | 15 | 52 | 6.4 | 8.0 | 0.00 | 0.00 | 0.00 | 50 | 1017.7 |
| 20260502191736 | 15 | 66 | 6.4 | 8.0 | 0.00 | 0.00 | 0.00 | 51 | 1017.7 |
| 20260502191236 | 15 | 69 | 4.8 | 9.7 | 0.00 | 0.00 | 0.00 | 50 | 1017.7 |
| 20260502190737 | 15 | 52 | 4.8 | 9.7 | 0.00 | 0.00 | 0.00 | 50 | 1017.6 |
| 20260502190524 | 15 | 86 | 4.8 | 8.0 | 0.00 | 0.00 | 0.00 | 51 | 1017.5 |
| 20260502185738 | 15 | 54 | 4.8 | 8.0 | 0.00 | 0.00 | 0.00 | 51 | 1017.6 |
| 20260502185235 | 15 | 76 | 3.2 | 8.0 | 0.00 | 0.00 | 0.00 | 53 | 1017.5 |
| 20260502185015 | 14 | 54 | 4.8 | 8.0 | 0.00 | 0.00 | 0.00 | 53 | 1017.5 |
| 20260502184232 | 14 | 138 | 1.6 | 6.4 | 0.00 | 0.00 | 0.00 | 54 | 1017.4 |
| 20260502183732 | 15 | 125 | 3.2 | 4.8 | 0.00 | 0.00 | 0.00 | 54 | 1017.4 |
| 20260502183330 | 15 | 125 | 3.2 | 6.4 | 0.00 | 0.00 | 0.00 | 53 | 1017.3 |
| 20260502183310 | 15 | 125 | 1.6 | 6.4 | 0.00 | 0.00 | 0.00 | 54 | 1017.4 |
| 20260502182239 | 15 | 125 | 0.0 | 6.4 | 0.00 | 0.00 | 0.00 | 52 | 1017.2 |
| 20260502182016 | 15 | 125 | 3.2 | 8.0 | 0.00 | 0.00 | 0.00 | 52 | 1017.3 |
| 20260502181233 | 16 | 114 | 4.8 | 8.0 | 0.00 | 0.00 | 0.00 | 51 | 1017.2 |
| 20260502180734 | 16 | 127 | 3.2 | 8.0 | 0.00 | 0.00 | 0.00 | 50 | 1017.2 |
| 20260502180231 | 16 | 128 | 4.8 | 6.4 | 0.00 | 0.00 | 0.00 | 50 | 1017.2 |
| 20260502170230 | 18 | 155 | 6.4 | 8.0 | 0.00 | 0.00 | 0.00 | 43 | 1016.8 |
| 20260502164227 | 20 | 271 | 1.6 | 6.4 | 0.00 | 0.00 | 0.00 | 38 | 1016.9 |
| 20260502163724 | 20 | 234 | 3.2 | 6.4 | 0.00 | 0.00 | 0.00 | 39 | 1016.9 |
| 20260502163225 | 20 | 230 | 4.8 | 6.4 | 0.00 | 0.00 | 0.00 | 42 | 1016.9 |
| 20260502162724 | 20 | 223 | 3.2 | 6.4 | 0.00 | 0.00 | 0.00 | 42 | 1016.8 |
| 20260502162224 | 20 | 228 | 3.2 | 8.0 | 0.00 | 0.00 | 0.00 | 42 | 1016.9 |
| 20260502161728 | 20 | 230 | 4.8 | 8.0 | 0.00 | 0.00 | 0.00 | 41 | 1016.9 |
| 20260502161223 | 20 | 226 | 3.2 | 9.7 | 0.00 | 0.00 | 0.00 | 39 | 1016.9 |
| 20260502160720 | 20 | 221 | 4.8 | 9.7 | 0.00 | 0.00 | 0.00 | 41 | 1017.0 |
| 20260502160220 | 20 | 243 | 6.4 | 9.7 | 0.00 | 0.00 | 0.00 | 39 | 1017.0 |
| 20260502151715 | 20 | 290 | 9.7 | 22.5 | 0.00 | 0.00 | 0.00 | 35 | 1017.3 |
| 20260502151448 | 20 | 275 | 9.7 | 22.5 | 0.00 | 0.00 | 0.00 | 35 | 1017.3 |
| 20260502150711 | 20 | 254 | 9.7 | 20.9 | 0.00 | 0.00 | 0.00 | 37 | 1017.2 |
| 20260502150213 | 20 | 245 | 11.3 | 20.9 | 0.00 | 0.00 | 0.00 | 37 | 1017.2 |
| 20260502130701 | 20 | 286 | 9.7 | 20.9 | 0.00 | 0.00 | 0.00 | 38 | 1018.7 |
| 20260502130201 | 20 | 245 | 12.9 | 20.9 | 0.00 | 0.00 | 0.00 | 37 | 1018.7 |
| 20260502123659 | 19 | 233 | 6.4 | 17.7 | 0.00 | 0.00 | 0.00 | 39 | 1018.9 |
| 20260502123158 | 19 | 258 | 12.9 | 17.7 | 0.00 | 0.00 | 0.00 | 38 | 1019.0 |
| 20260502122655 | 19 | 278 | 6.4 | 19.3 | 0.00 | 0.00 | 0.00 | 41 | 1019.0 |
| 20260502122155 | 18 | 248 | 9.7 | 19.3 | 0.00 | 0.00 | 0.00 | 38 | 1019.2 |
| 20260502121656 | 18 | 302 | 11.3 | 17.7 | 0.00 | 0.00 | 0.00 | 39 | 1019.2 |
| 20260502121154 | 18 | 302 | 6.4 | 16.1 | 0.00 | 0.00 | 0.00 | 41 | 1019.3 |
| 20260502120956 | 18 | 350 | 9.7 | 22.5 | 0.00 | 0.00 | 0.00 | 40 | 1019.3 |
| 20260502120434 | 18 | 295 | 9.7 | 22.5 | 0.00 | 0.00 | 0.00 | 39 | 1019.4 |
| 20260502115729 | 18 | 300 | 8.0 | 16.1 | 0.00 | 0.00 | 0.00 | 40 | 1019.5 |
| 20260502115712 | 18 | 289 | 4.8 | 14.5 | 0.00 | 0.00 | 0.00 | 43 | 1019.4 |
| 20260502114652 | 18 | 254 | 6.4 | 16.1 | 0.00 | 0.00 | 0.00 | 42 | 1019.6 |
| 20260502114149 | 18 | 268 | 4.8 | 14.5 | 0.00 | 0.00 | 0.00 | 41 | 1019.6 |
| 20260502113650 | 18 | 281 | 8.0 | 14.5 | 0.00 | 0.00 | 0.00 | 43 | 1019.6 |
| 20260502113439 | 18 | 276 | 6.4 | 11.3 | 0.00 | 0.00 | 0.00 | 43 | 1019.7 |
| 20260502112647 | 17 | 244 | 8.0 | 11.3 | 0.00 | 0.00 | 0.00 | 45 | 1019.7 |
| 20260502112147 | 17 | 237 | 6.4 | 14.5 | 0.00 | 0.00 | 0.00 | 45 | 1019.8 |
| 20260502111648 | 17 | 292 | 8.0 | 14.5 | 0.00 | 0.00 | 0.00 | 44 | 1020.0 |
| 20260502111145 | 17 | 265 | 6.4 | 14.5 | 0.00 | 0.00 | 0.00 | 43 | 1020.1 |
| 20260502110646 | 16 | 250 | 6.4 | 14.5 | 0.00 | 0.00 | 0.00 | 44 | 1020.2 |
| 20260502110147 | 16 | 255 | 4.8 | 11.3 | 0.00 | 0.00 | 0.00 | 43 | 1020.3 |
| 20260502105642 | 16 | 279 | 8.0 | 11.3 | 0.00 | 0.00 | 0.00 | 43 | 1020.4 |
| 20260502105143 | 16 | 326 | 4.8 | 11.3 | 0.00 | 0.00 | 0.00 | 44 | 1020.4 |
| 20260502104643 | 16 | 265 | 3.2 | 11.3 | 0.00 | 0.00 | 0.00 | 45 | 1020.6 |
| 20260502104242 | 16 | 302 | 6.4 | 11.3 | 0.00 | 0.00 | 0.00 | 44 | 1020.7 |
| 20260502104204 | 16 | 288 | 3.2 | 11.3 | 0.00 | 0.00 | 0.00 | 46 | 1020.7 |
| 20260502103424 | 15 | 269 | 4.8 | 11.3 | 0.00 | 0.00 | 0.00 | 44 | 1020.8 |
| 20260502102645 | 16 | 240 | 8.0 | 11.3 | 0.00 | 0.00 | 0.00 | 44 | 1020.9 |
| 20260502102140 | 16 | 266 | 4.8 | 9.7 | 0.00 | 0.00 | 0.00 | 43 | 1021.0 |
| 20260502101638 | 16 | 262 | 3.2 | 11.3 | 0.00 | 0.00 | 0.00 | 44 | 1021.1 |
| 20260502101138 | 15 | 259 | 3.2 | 11.3 | 0.00 | 0.00 | 0.00 | 45 | 1021.1 |
| 20260502100637 | 15 | 228 | 4.8 | 9.7 | 0.00 | 0.00 | 0.00 | 46 | 1021.2 |
| 20260502100138 | 15 | 319 | 6.4 | 9.7 | 0.00 | 0.00 | 0.00 | 44 | 1021.2 |
| 20260502091131 | 14 | 283 | 1.6 | 6.4 | 0.00 | 0.00 | 0.00 | 52 | 1021.8 |
| 20260502090631 | 13 | 275 | 3.2 | 6.4 | 0.00 | 0.00 | 0.00 | 50 | 1021.8 |
| 20260502090134 | 13 | 250 | 3.2 | 6.4 | 0.00 | 0.00 | 0.00 | 52 | 1021.9 |
| 20260502071125 | 9 | 38 | 0.0 | 3.2 | 0.00 | 0.00 | 0.00 | 64 | 1022.7 |
| 20260502070623 | 9 | 38 | 1.6 | 3.2 | 0.00 | 0.00 | 0.00 | 64 | 1022.6 |
| 20260502070119 | 9 | 38 | 0.0 | 3.2 | 0.00 | 0.00 | 0.00 | 68 | 1022.7 |
| 20260502065628 | 8 | 38 | 1.6 | 3.2 | 0.00 | 0.00 | 0.00 | 67 | 1022.7 |
| 20260502065118 | 8 | 38 | 1.6 | 4.8 | 0.00 | 0.00 | 0.00 | 69 | 1022.7 |
| 20260502064858 | 8 | 38 | 3.2 | 4.8 | 0.00 | 0.00 | 0.00 | 66 | 1022.6 |
| 20260502064118 | 7 | 38 | 3.2 | 4.8 | 0.00 | 0.00 | 0.00 | 68 | 1022.7 |
| 20260502063619 | 7 | 38 | 3.2 | 4.8 | 0.00 | 0.00 | 0.00 | 69 | 1022.7 |
| 20260502063401 | 7 | 38 | 3.2 | 4.8 | 0.00 | 0.00 | 0.00 | 70 | 1022.8 |
| 20260502062605 | 7 | 38 | 3.2 | 4.8 | 0.00 | 0.00 | 0.00 | 70 | 1022.8 |
| 20260502062105 | 7 | 38 | 3.2 | 4.8 | 0.00 | 0.00 | 0.00 | 70 | 1022.8 |
| 20260502061605 | 7 | 38 | 3.2 | 4.8 | 0.00 | 0.00 | 0.00 | 69 | 1022.8 |
| 20260502061113 | 7 | 38 | 3.2 | 4.8 | 0.00 | 0.00 | 0.00 | 69 | 1022.8 |
| 20260502060605 | 7 | 38 | 3.2 | 3.2 | 0.00 | 0.00 | 0.00 | 69 | 1022.9 |
| 20260502060116 | 7 | 38 | 3.2 | 4.8 | 0.00 | 0.00 | 0.00 | 69 | 1022.8 |
| 20260502055602 | 7 | 38 | 3.2 | 4.8 | 0.00 | 0.00 | 0.00 | 69 | 1022.9 |
| 20260502055104 | 7 | 38 | 3.2 | 4.8 | 0.00 | 0.00 | 0.00 | 69 | 1022.9 |
| 20260502054602 | 7 | 38 | 3.2 | 4.8 | 0.00 | 0.00 | 0.00 | 67 | 1022.9 |
| 20260502054102 | 7 | 38 | 3.2 | 4.8 | 0.00 | 0.00 | 0.00 | 68 | 1022.9 |
| 20260502053553 | 7 | 38 | 3.2 | 4.8 | 0.00 | 0.00 | 0.00 | 68 | 1022.9 |
| 20260502053051 | 7 | 38 | 3.2 | 4.8 | 0.00 | 0.00 | 0.00 | 68 | 1022.9 |
| 20260502052552 | 7 | 38 | 3.2 | 4.8 | 0.00 | 0.00 | 0.00 | 69 | 1022.9 |
| 20260502052052 | 7 | 38 | 1.6 | 4.8 | 0.00 | 0.00 | 0.00 | 70 | 1022.8 |
| 20260502051833 | 7 | 38 | 0.0 | 4.8 | 0.00 | 0.00 | 0.00 | 68 | 1022.8 |
| 20260502051332 | 7 | 38 | 0.0 | 4.8 | 0.00 | 0.00 | 0.00 | 69 | 1022.8 |
| 20260502050549 | 7 | 38 | 3.2 | 6.4 | 0.00 | 0.00 | 0.00 | 69 | 1022.9 |
| 20260502050046 | 7 | 38 | 4.8 | 6.4 | 0.00 | 0.00 | 0.00 | 68 | 1022.8 |
| 20260502045547 | 7 | 38 | 3.2 | 6.4 | 0.00 | 0.00 | 0.00 | 67 | 1022.9 |
| 20260502045333 | 6 | 38 | 3.2 | 6.4 | 0.00 | 0.00 | 0.00 | 69 | 1022.9 |
| 20260502044547 | 7 | 38 | 3.2 | 6.4 | 0.00 | 0.00 | 0.00 | 68 | 1022.8 |
| 20260502044110 | 7 | 38 | 4.8 | 6.4 | 0.00 | 0.00 | 0.00 | 67 | 1022.9 |
| 20260502044059 | 7 | 38 | 4.8 | 6.4 | 0.00 | 0.00 | 0.00 | 67 | 1022.9 |
| 20260502043046 | 7 | 38 | 3.2 | 6.4 | 0.00 | 0.00 | 0.00 | 67 | 1022.9 |
| 20260502042607 | 7 | 38 | 4.8 | 6.4 | 0.00 | 0.00 | 0.00 | 66 | 1022.8 |
| 20260502042602 | 7 | 38 | 4.8 | 6.4 | 0.00 | 0.00 | 0.00 | 66 | 1022.9 |
| 20260502041539 | 7 | 38 | 4.8 | 6.4 | 0.00 | 0.00 | 0.00 | 66 | 1022.8 |
| 20260502041037 | 6 | 38 | 4.8 | 6.4 | 0.00 | 0.00 | 0.00 | 67 | 1022.7 |
| 20260502040538 | 6 | 38 | 4.8 | 6.4 | 0.00 | 0.00 | 0.00 | 68 | 1022.8 |
| 20260502040036 | 6 | 30 | 3.2 | 4.8 | 0.00 | 0.00 | 0.00 | 67 | 1022.8 |
| 20260502035559 | 7 | 25 | 3.2 | 8.0 | 0.00 | 0.00 | 0.00 | 67 | 1022.8 |
| 20260502035034 | 7 | 25 | 3.2 | 8.0 | 0.00 | 0.00 | 0.00 | 66 | 1022.7 |
| 20260502034535 | 7 | 7 | 6.4 | 8.0 | 0.00 | 0.00 | 0.00 | 67 | 1022.6 |
| 20260502034341 | 6 | 34 | 3.2 | 4.8 | 0.00 | 0.00 | 0.00 | 68 | 1022.5 |
| 20260502033532 | 7 | 34 | 3.2 | 4.8 | 0.00 | 0.00 | 0.00 | 66 | 1022.5 |
| 20260502033033 | 7 | 34 | 3.2 | 4.8 | 0.00 | 0.00 | 0.00 | 66 | 1022.5 |
| 20260502032530 | 7 | 34 | 3.2 | 4.8 | 0.00 | 0.00 | 0.00 | 66 | 1022.5 |
| 20260502032031 | 7 | 34 | 3.2 | 4.8 | 0.00 | 0.00 | 0.00 | 66 | 1022.5 |
| 20260502031535 | 7 | 34 | 3.2 | 6.4 | 0.00 | 0.00 | 0.00 | 66 | 1022.5 |
| 20260502031031 | 7 | 34 | 4.8 | 6.4 | 0.00 | 0.00 | 0.00 | 67 | 1022.5 |
| 20260502030531 | 7 | 34 | 4.8 | 4.8 | 0.00 | 0.00 | 0.00 | 67 | 1022.5 |
| 20260502030031 | 7 | 34 | 3.2 | 4.8 | 0.00 | 0.00 | 0.00 | 67 | 1022.5 |
| 20260502025526 | 7 | 34 | 3.2 | 4.8 | 0.00 | 0.00 | 0.00 | 66 | 1022.5 |
| 20260502025026 | 7 | 34 | 4.8 | 6.4 | 0.00 | 0.00 | 0.00 | 65 | 1022.4 |
| 20260502024527 | 7 | 34 | 4.8 | 6.4 | 0.00 | 0.00 | 0.00 | 64 | 1022.5 |
| 20260502024024 | 7 | 34 | 4.8 | 6.4 | 0.00 | 0.00 | 0.00 | 65 | 1022.4 |
| 20260502023524 | 7 | 34 | 3.2 | 6.4 | 0.00 | 0.00 | 0.00 | 65 | 1022.5 |
| 20260502023029 | 7 | 34 | 4.8 | 8.0 | 0.00 | 0.00 | 0.00 | 65 | 1022.6 |
| 20260502022525 | 7 | 34 | 3.2 | 8.0 | 0.00 | 0.00 | 0.00 | 65 | 1022.5 |
| 20260502022258 | 7 | 34 | 4.8 | 6.4 | 0.00 | 0.00 | 0.00 | 66 | 1022.6 |
| 20260502021522 | 7 | 34 | 4.8 | 6.4 | 0.00 | 0.00 | 0.00 | 65 | 1022.5 |
| 20260502021024 | 7 | 34 | 3.2 | 6.4 | 0.00 | 0.00 | 0.00 | 65 | 1022.5 |
| 20260502020807 | 7 | 34 | 4.8 | 6.4 | 0.00 | 0.00 | 0.00 | 64 | 1022.6 |
| 20260502020023 | 7 | 34 | 3.2 | 6.4 | 0.00 | 0.00 | 0.00 | 65 | 1022.5 |
| 20260502015520 | 7 | 34 | 3.2 | 4.8 | 0.00 | 0.00 | 0.00 | 65 | 1022.5 |
| 20260502015027 | 7 | 34 | 3.2 | 4.8 | 0.00 | 0.00 | 0.00 | 64 | 1022.5 |
| 20260502014524 | 7 | 34 | 3.2 | 4.8 | 0.00 | 0.00 | 0.00 | 64 | 1022.5 |
| 20260502014042 | 7 | 34 | 0.0 | 3.2 | 0.00 | 0.00 | 0.00 | 65 | 1022.6 |
| 20260502014036 | 7 | 34 | 3.2 | 4.8 | 0.00 | 0.00 | 0.00 | 65 | 1022.6 |
| 20260502013301 | 7 | 34 | 0.0 | 6.4 | 0.00 | 0.00 | 0.00 | 64 | 1022.5 |
| 20260502012826 | 8 | 34 | 3.2 | 6.4 | 0.00 | 0.00 | 0.00 | 63 | 1022.7 |
| 20260502012015 | 8 | 34 | 3.2 | 4.8 | 0.00 | 0.00 | 0.00 | 62 | 1022.6 |
| 20260502011800 | 8 | 32 | 1.6 | 4.8 | 0.00 | 0.00 | 0.00 | 62 | 1022.6 |
| 20260502011009 | 8 | 32 | 0.0 | 8.0 | 0.00 | 0.00 | 0.00 | 61 | 1022.7 |
| 20260502010759 | 8 | 32 | 4.8 | 8.0 | 0.00 | 0.00 | 0.00 | 59 | 1022.5 |
| 20260502010012 | 8 | 39 | 4.8 | 6.4 | 0.00 | 0.00 | 0.00 | 60 | 1022.6 |
| 20260502005513 | 8 | 55 | 3.2 | 4.8 | 0.00 | 0.00 | 0.00 | 62 | 1022.5 |
| 20260502005256 | 8 | 55 | 1.6 | 9.7 | 0.00 | 0.00 | 0.00 | 61 | 1022.6 |
| 20260502004512 | 8 | 48 | 6.4 | 9.7 | 0.00 | 0.00 | 0.00 | 59 | 1022.6 |
| 20260502004010 | 8 | 61 | 4.8 | 6.4 | 0.00 | 0.00 | 0.00 | 60 | 1022.7 |
| 20260502003512 | 8 | 61 | 3.2 | 9.7 | 0.00 | 0.00 | 0.00 | 60 | 1022.8 |
| 20260502003010 | 8 | 61 | 4.8 | 9.7 | 0.00 | 0.00 | 0.00 | 60 | 1022.7 |
| 20260502002512 | 8 | 61 | 8.0 | 9.7 | 0.00 | 0.00 | 0.00 | 59 | 1022.8 |
| 20260502002016 | 8 | 63 | 4.8 | 8.0 | 0.00 | 0.00 | 0.00 | 61 | 1022.9 |
| 20260502001540 | 8 | 58 | 4.8 | 6.4 | 0.00 | 0.00 | 0.00 | 63 | 1022.9 |
| 20260502001527 | 8 | 58 | 4.8 | 8.0 | 0.00 | 0.00 | 0.00 | 61 | 1022.9 |
| 20260502000507 | 8 | 59 | 3.2 | 4.8 | 0.00 | 0.00 | 0.00 | 64 | 1022.9 |
| 20260502000259 | 8 | 59 | 1.6 | 4.8 | 0.00 | 0.00 | 0.00 | 65 | 1022.9 |
| 20260501235512 | 8 | 59 | 1.6 | 4.8 | 0.00 | 0.00 | 0.00 | 63 | 1022.9 |
| 20260501235010 | 8 | 59 | 0.0 | 6.4 | 0.00 | 0.00 | 0.00 | 63 | 1022.8 |
| 20260501234818 | 8 | 59 | 3.2 | 6.4 | 0.00 | 0.00 | 0.00 | 61 | 1022.8 |
| 20260501234011 | 8 | 59 | 3.2 | 8.0 | 0.00 | 0.00 | 0.00 | 61 | 1022.8 |
| 20260501233518 | 8 | 59 | 4.8 | 8.0 | 0.00 | 0.00 | 0.00 | 59 | 1022.8 |
| 20260501233048 | 8 | 59 | 4.8 | 6.4 | 0.00 | 0.00 | 0.00 | 61 | 1022.8 |
| 20260501233036 | 8 | 59 | 4.8 | 6.4 | 0.00 | 0.00 | 0.00 | 61 | 1022.7 |
| 20260501232009 | 8 | 59 | 3.2 | 4.8 | 0.00 | 0.00 | 0.00 | 62 | 1022.7 |
| 20260501231528 | 8 | 59 | 3.2 | 4.8 | 0.00 | 0.00 | 0.00 | 63 | 1022.7 |
| 20260501231009 | 8 | 59 | 0.0 | 4.8 | 0.00 | 0.00 | 0.00 | 63 | 1022.8 |
| 20260501230523 | 8 | 59 | 1.6 | 6.4 | 0.00 | 0.00 | 0.00 | 62 | 1022.7 |
| 20260501230243 | 8 | 59 | 0.0 | 6.4 | 0.00 | 0.00 | 0.00 | 61 | 1022.7 |
| 20260501225512 | 8 | 59 | 4.8 | 6.4 | 0.00 | 0.00 | 0.00 | 60 | 1022.7 |
| 20260501225008 | 8 | 59 | 1.6 | 4.8 | 0.00 | 0.00 | 0.00 | 61 | 1022.7 |
| 20260501224512 | 8 | 59 | 1.6 | 4.8 | 0.00 | 0.00 | 0.00 | 61 | 1022.6 |
| 20260501224008 | 8 | 59 | 1.6 | 8.0 | 0.00 | 0.00 | 0.00 | 60 | 1022.7 |
| 20260501223511 | 9 | 59 | 1.6 | 8.0 | 0.00 | 0.00 | 0.00 | 60 | 1022.6 |
| 20260501223010 | 9 | 59 | 4.8 | 9.7 | 0.00 | 0.00 | 0.00 | 60 | 1022.6 |
| 20260501222515 | 10 | 59 | 4.8 | 9.7 | 0.00 | 0.00 | 0.00 | 57 | 1022.6 |
| 20260501222009 | 10 | 62 | 4.8 | 8.0 | 0.00 | 0.00 | 0.00 | 57 | 1022.6 |
| 20260501221509 | 10 | 65 | 3.2 | 8.0 | 0.00 | 0.00 | 0.00 | 56 | 1022.5 |
| 20260501221004 | 10 | 69 | 4.8 | 9.7 | 0.00 | 0.00 | 0.00 | 55 | 1022.5 |
| 20260501220522 | 10 | 47 | 4.8 | 8.0 | 0.00 | 0.00 | 0.00 | 56 | 1022.5 |
| 20260501220518 | 10 | 54 | 6.4 | 9.7 | 0.00 | 0.00 | 0.00 | 56 | 1022.5 |
| 20260501215507 | 10 | 52 | 1.6 | 11.3 | 0.00 | 0.00 | 0.00 | 57 | 1022.5 |
| 20260501215004 | 10 | 55 | 4.8 | 11.3 | 0.00 | 0.00 | 0.00 | 56 | 1022.5 |
| 20260501214515 | 9 | 76 | 4.8 | 8.0 | 0.00 | 0.00 | 0.00 | 58 | 1022.5 |
| 20260501214012 | 10 | 83 | 0.0 | 6.4 | 0.00 | 0.00 | 0.00 | 59 | 1022.4 |
| 20260501213509 | 10 | 83 | 3.2 | 8.0 | 0.00 | 0.00 | 0.00 | 57 | 1022.4 |
| 20260501213005 | 10 | 83 | 4.8 | 8.0 | 0.00 | 0.00 | 0.00 | 55 | 1022.3 |
| 20260501212509 | 10 | 85 | 3.2 | 6.4 | 0.00 | 0.00 | 0.00 | 56 | 1022.4 |
| 20260501212005 | 10 | 85 | 3.2 | 6.4 | 0.00 | 0.00 | 0.00 | 57 | 1022.4 |
| 20260501211508 | 10 | 86 | 1.6 | 6.4 | 0.00 | 0.00 | 0.00 | 58 | 1022.4 |
| 20260501211006 | 10 | 86 | 3.2 | 6.4 | 0.00 | 0.00 | 0.00 | 59 | 1022.3 |
| 20260501210512 | 10 | 55 | 0.0 | 3.2 | 0.00 | 0.00 | 0.00 | 59 | 1022.3 |
| 20260501210019 | 10 | 55 | 0.0 | 4.8 | 0.00 | 0.00 | 0.00 | 56 | 1022.2 |
| 20260501205509 | 10 | 55 | 3.2 | 8.0 | 0.00 | 0.00 | 0.00 | 56 | 1022.3 |
| 20260501205007 | 10 | 55 | 3.2 | 8.0 | 0.00 | 0.00 | 0.00 | 53 | 1022.2 |
| 20260501204755 | 10 | 52 | 4.8 | 8.0 | 0.00 | 0.00 | 0.00 | 54 | 1022.2 |
| 20260501204008 | 10 | 54 | 3.2 | 6.4 | 0.00 | 0.00 | 0.00 | 55 | 1022.2 |
| 20260501203508 | 10 | 54 | 3.2 | 4.8 | 0.00 | 0.00 | 0.00 | 55 | 1022.2 |
| 20260501203008 | 10 | 54 | 3.2 | 6.4 | 0.00 | 0.00 | 0.00 | 55 | 1022.2 |
| 20260501202514 | 10 | 73 | 1.6 | 6.4 | 0.00 | 0.00 | 0.00 | 58 | 1022.2 |
| 20260501202005 | 10 | 141 | 0.0 | 0.0 | 0.00 | 0.00 | 0.00 | 58 | 1022.1 |
| 20260501201507 | 10 | 147 | 0.0 | 4.8 | 0.00 | 0.00 | 0.00 | 59 | 1022.1 |
| 20260501201006 | 10 | 147 | 1.6 | 4.8 | 0.00 | 0.00 | 0.00 | 58 | 1022.2 |
| 20260501200508 | 10 | 145 | 1.6 | 4.8 | 0.00 | 0.00 | 0.00 | 58 | 1022.1 |